Change the Weather History Date:

Wednesday, January 15, 2014

  Actual Average (KMTC) Record (KMTC)
Temperature  
Mean Temperature 26 °F -  
Max Temperature 32 °F 27 °F 53 °F (1953)
Min Temperature 17 °F 15 °F -5 °F (1963)
Degree Days  
Heating Degree Days 40    
Moisture  
Dew Point 15 °F    
Average Humidity 64    
Maximum Humidity 74    
Minimum Humidity 55    
Precipitation  
Precipitation 0.00 in - - ()
Sea Level Pressure  
Sea Level Pressure 29.85 in    
Wind  
Wind Speed 8 mph (WSW)    
Max Wind Speed 16 mph    
Max Gust Speed 23 mph    
Visibility 10 miles    
Events      
Averages and records for this station are not official NWS values.
T = Trace of Precipitation, MM = Missing Value Source: NWS Daily Summary

Daily Weather History Graph

Daily Weather History Graph

Search for Another Location

Airport or City:

Trip Planner

Search our weather history database for the weather conditions in past years. The results will help you decide how hot, cold, wet, or windy it might be!

Date:

Astronomy

Jan. 15, 2014 Rise Set
Actual Time 7:58 AM EST 5:21 PM EST
Civil Twilight 7:26 AM EST 5:52 PM EST
Nautical Twilight 6:51 AM EST 6:27 PM EST
Astronomical Twilight 6:17 AM EST 7:01 PM EST
Moon 5:19 PM EST (1/15) 7:12 AM EST (1/15)
Length of Visible Light 10h 25m
Length of Day
9h 22m
Full, 100% of the Moon is Illuminated
Jan 15
Full
Jan 15
Full
Jan 24
Last Quarter
Jan 30
New
Feb 6
First Quarter

Hourly Weather History & Observations

Time (EST) Temp. Windchill Dew Point Humidity Pressure Visibility Wind Dir Wind Speed Gust Speed Precip Events Conditions
12:18 AM 32.0 °F 24.8 °F 21.2 °F 64% 29.70 in 10.0 mi WSW 8.1 mph 19.6 mph N/A   Overcast
12:38 AM 32.0 °F 27.5 °F 19.4 °F 60% 29.70 in 10.0 mi WSW 4.6 mph - N/A   Overcast
12:58 AM 30.2 °F 23.4 °F 19.4 °F 64% 29.69 in 10.0 mi SW 6.9 mph - N/A   Overcast
1:18 AM 32.0 °F 23.0 °F 17.6 °F 55% 29.69 in 10.0 mi SW 11.5 mph 18.4 mph N/A   Overcast
1:38 AM 30.2 °F 21.3 °F 17.6 °F 60% 29.69 in 10.0 mi SSW 10.4 mph 18.4 mph N/A   Overcast
1:58 AM 30.2 °F 20.8 °F 17.6 °F 60% 29.69 in 10.0 mi SW 11.5 mph 21.9 mph N/A   Overcast
2:18 AM 30.2 °F 22.6 °F 15.8 °F 55% 29.70 in 10.0 mi SW 8.1 mph 21.9 mph N/A   Overcast
2:38 AM 30.2 °F 22.6 °F 17.6 °F 60% 29.70 in 10.0 mi WSW 8.1 mph 17.3 mph N/A   Overcast
2:58 AM 30.2 °F 20.2 °F 17.6 °F 60% 29.70 in 10.0 mi SSW 12.7 mph 18.4 mph N/A   Overcast
3:18 AM 28.4 °F 16.6 °F 15.8 °F 59% 29.71 in 10.0 mi SSW 16.1 mph 23.0 mph N/A   Overcast
3:38 AM 28.4 °F 19.7 °F 15.8 °F 59% 29.71 in 10.0 mi SW 9.2 mph 17.3 mph N/A   Overcast
3:58 AM 26.6 °F 16.2 °F 14.0 °F 59% 29.72 in 10.0 mi SW 11.5 mph 19.6 mph N/A   Mostly Cloudy
4:18 AM 26.6 °F 15.7 °F 14.0 °F 59% 29.72 in 10.0 mi SSW 12.7 mph 18.4 mph N/A   Mostly Cloudy
4:38 AM 26.6 °F 15.7 °F 15.8 °F 64% 29.72 in 10.0 mi SSW 12.7 mph 23.0 mph N/A   Overcast
4:58 AM 26.6 °F 15.2 °F 15.8 °F 64% 29.72 in 10.0 mi SSW 13.8 mph 23.0 mph N/A   Overcast
5:18 AM 26.6 °F 16.2 °F 15.8 °F 64% 29.72 in 10.0 mi SSW 11.5 mph 17.3 mph N/A   Scattered Clouds
5:38 AM 26.6 °F 16.8 °F 15.8 °F 64% 29.73 in 10.0 mi SSW 10.4 mph - N/A   Mostly Cloudy
5:58 AM 26.6 °F 16.8 °F 15.8 °F 64% 29.73 in 10.0 mi SW 10.4 mph 18.4 mph N/A   Overcast
6:18 AM 26.6 °F 15.7 °F 15.8 °F 64% 29.73 in 10.0 mi SSW 12.7 mph 18.4 mph N/A   Overcast
6:38 AM 26.6 °F 16.8 °F 15.8 °F 64% 29.74 in 10.0 mi SSW 10.4 mph 18.4 mph N/A   Overcast
6:58 AM 26.6 °F 16.2 °F 17.6 °F 69% 29.74 in 10.0 mi SSW 11.5 mph 21.9 mph N/A   Overcast
7:18 AM 26.6 °F 16.8 °F 17.6 °F 69% 29.75 in 10.0 mi SW 10.4 mph 19.6 mph N/A   Overcast
7:38 AM 26.6 °F 15.7 °F 17.6 °F 69% 29.76 in 10.0 mi SSW 12.7 mph - N/A   Overcast
7:58 AM 26.6 °F 17.5 °F 17.6 °F 69% 29.77 in 10.0 mi SW 9.2 mph 18.4 mph N/A   Overcast
8:18 AM 26.6 °F 17.5 °F 19.4 °F 74% 29.78 in 10.0 mi SSW 9.2 mph 16.1 mph N/A   Overcast
8:38 AM 26.6 °F 19.1 °F 19.4 °F 74% 29.79 in 10.0 mi SSW 6.9 mph 17.3 mph N/A   Overcast
8:58 AM 26.6 °F 16.8 °F 19.4 °F 74% 29.81 in 10.0 mi SW 10.4 mph 18.4 mph N/A   Overcast
9:18 AM 26.6 °F 20.0 °F 19.4 °F 74% 29.82 in 10.0 mi SW 5.8 mph - N/A   Overcast
9:38 AM 26.6 °F 17.5 °F 19.4 °F 74% 29.84 in 10.0 mi WSW 9.2 mph - N/A   Overcast
9:58 AM 26.6 °F 19.1 °F 19.4 °F 74% 29.85 in 10.0 mi West 6.9 mph 17.3 mph N/A   Overcast
10:18 AM 26.6 °F 17.5 °F 17.6 °F 69% 29.86 in 10.0 mi West 9.2 mph 16.1 mph N/A   Overcast
10:38 AM 26.6 °F 16.8 °F 17.6 °F 69% 29.87 in 10.0 mi West 10.4 mph 17.3 mph N/A   Overcast
10:58 AM 26.6 °F 20.0 °F 15.8 °F 64% 29.89 in 10.0 mi WSW 5.8 mph - N/A   Overcast
11:18 AM 26.6 °F 15.7 °F 15.8 °F 64% 29.89 in 10.0 mi West 12.7 mph 16.1 mph N/A   Overcast
11:38 AM 26.6 °F 16.2 °F 15.8 °F 64% 29.90 in 10.0 mi West 11.5 mph 16.1 mph N/A   Overcast
11:58 AM 26.6 °F 17.5 °F 15.8 °F 64% 29.90 in 10.0 mi WSW 9.2 mph 16.1 mph N/A   Overcast
12:18 PM 26.6 °F 16.8 °F 15.8 °F 64% 29.89 in 10.0 mi WSW 10.4 mph 16.1 mph N/A   Overcast
12:38 PM 26.6 °F 17.5 °F 14.0 °F 59% 29.89 in 10.0 mi West 9.2 mph 16.1 mph N/A   Overcast
12:58 PM 26.6 °F 17.5 °F 15.8 °F 64% 29.90 in 10.0 mi West 9.2 mph 17.3 mph N/A   Overcast
1:18 PM 26.6 °F 19.1 °F 15.8 °F 64% 29.90 in 10.0 mi WSW 6.9 mph - N/A   Overcast
1:38 PM 26.6 °F 17.5 °F 14.0 °F 59% 29.90 in 10.0 mi West 9.2 mph - N/A   Overcast
1:58 PM 26.6 °F 18.2 °F 14.0 °F 59% 29.90 in 10.0 mi WNW 8.1 mph - N/A   Overcast
2:18 PM 26.6 °F 16.8 °F 14.0 °F 59% 29.90 in 10.0 mi West 10.4 mph - N/A   Overcast
2:38 PM 26.6 °F 18.2 °F 14.0 °F 59% 29.91 in 10.0 mi WSW 8.1 mph - N/A   Overcast
2:58 PM 26.6 °F 19.1 °F 14.0 °F 59% 29.91 in 10.0 mi West 6.9 mph - N/A   Overcast
3:18 PM 26.6 °F 18.2 °F 15.8 °F 64% 29.92 in 10.0 mi West 8.1 mph - N/A   Overcast
3:38 PM 26.6 °F 17.5 °F 14.0 °F 59% 29.92 in 10.0 mi West 9.2 mph 17.3 mph N/A   Overcast
3:58 PM 24.8 °F 14.6 °F 12.2 °F 59% 29.93 in 10.0 mi West 10.4 mph - N/A   Overcast
4:18 PM 24.8 °F 15.3 °F 12.2 °F 59% 29.93 in 10.0 mi West 9.2 mph - N/A   Overcast
4:38 PM 24.8 °F 16.9 °F 12.2 °F 59% 29.94 in 10.0 mi West 6.9 mph - N/A   Overcast
4:58 PM 24.8 °F 17.9 °F 14.0 °F 64% 29.95 in 10.0 mi WSW 5.8 mph - N/A   Overcast
5:18 PM 24.8 °F 16.9 °F 14.0 °F 64% 29.96 in 10.0 mi West 6.9 mph - N/A   Overcast
5:38 PM 24.8 °F 17.9 °F 14.0 °F 64% 29.96 in 10.0 mi West 5.8 mph - N/A   Overcast
5:58 PM 24.8 °F 19.1 °F 14.0 °F 64% 29.96 in 10.0 mi West 4.6 mph - N/A   Overcast
6:18 PM 24.8 °F 19.1 °F 14.0 °F 64% 29.97 in 10.0 mi West 4.6 mph - N/A   Overcast
6:38 PM 24.8 °F 20.5 °F 14.0 °F 64% 29.97 in 10.0 mi West 3.5 mph - N/A   Overcast
6:58 PM 24.8 °F 20.5 °F 14.0 °F 64% 29.97 in 10.0 mi WSW 3.5 mph - N/A   Overcast
7:18 PM 24.8 °F - 14.0 °F 64% 29.97 in 10.0 mi Calm Calm - N/A   Overcast
7:38 PM 24.8 °F 20.5 °F 15.8 °F 69% 29.97 in 10.0 mi SW 3.5 mph - N/A   Overcast
7:58 PM 24.8 °F - 14.0 °F 64% 29.97 in 10.0 mi Calm Calm - N/A   Overcast
8:18 PM 24.8 °F - 14.0 °F 64% 29.96 in 10.0 mi Calm Calm - N/A   Overcast
8:38 PM 23.0 °F - 14.0 °F 68% 29.97 in 10.0 mi Calm Calm - N/A   Overcast
8:58 PM 23.0 °F 18.4 °F 14.0 °F 68% 29.97 in 10.0 mi WSW 3.5 mph - N/A   Mostly Cloudy
9:18 PM 23.0 °F 17.0 °F 14.0 °F 68% 29.97 in 10.0 mi WSW 4.6 mph - N/A   Overcast
9:38 PM 21.2 °F 14.9 °F 14.0 °F 74% 29.97 in 10.0 mi West 4.6 mph - N/A   Mostly Cloudy
9:58 PM 21.2 °F 14.9 °F 12.2 °F 68% 29.97 in 10.0 mi West 4.6 mph - N/A   Mostly Cloudy
10:18 PM 21.2 °F 13.6 °F 10.4 °F 63% 29.97 in 10.0 mi WSW 5.8 mph - N/A   Scattered Clouds
10:38 PM 19.4 °F - 8.6 °F 63% 29.97 in 10.0 mi Calm Calm - N/A   Clear
10:58 PM 19.4 °F - 8.6 °F 63% 29.97 in 10.0 mi Calm Calm - N/A   Clear
11:18 PM 19.4 °F - 10.4 °F 68% 29.97 in 10.0 mi Calm Calm - N/A   Clear
11:38 PM 19.4 °F - 10.4 °F 68% 29.96 in 10.0 mi Calm Calm - N/A   Mostly Cloudy
11:58 PM 17.6 °F - 10.4 °F 73% 29.95 in 10.0 mi Calm Calm - N/A   Overcast